Location: Strawberry
(45.6646°N, 111.9596°W)
Time: 20:20:27
(UTC+00:00)

Explorer 11/Cluster Stage 4 - Pass Details

Date: 14 October 2022
Orbit: 466 x 1248 km, 28.8° (Epoch: 28 November)

Event Time Altitude Azimuth Distance (km) Brightness Sun altitude
Rises 16:39:20 0° 244° (WSW) 3,759 9.9 25.9°
Reaches altitude 10° 16:42:39 10° 228° (SW) 2,930 9.6 26.3°
Maximum altitude 16:47:49 21° 184° (S) 2,379 9.9 26.9°
Drops below altitude 10° 16:53:21 10° 140° (SE) 3,180 11.5 27.5°
Sets 16:57:09 0° 125° (SE) 4,175 11.4 27.9°
